This is the latest recevied weather packets stored in our database for station/object OK0EK-11. If no packets are shown the sender has not sent any weather packets the latest 10 day(s).
| Time | Temp. | Humidity | Pressure | Rain* | Wind** | Luminosity | Snow |
|---|---|---|---|---|---|---|---|
| 1778241504 | 10.56° C | 84% | 1019 hPa | - | - | - | - |
| 1778240904 | 10.56° C | 84% | 1019 hPa | - | - | - | - |
| 1778240305 | 10.56° C | 84% | 1018.9 hPa | - | - | - | - |
| 1778239707 | 10.56° C | 86% | 1018.9 hPa | - | - | - | - |
| 1778239108 | 9.44° C | 88% | 1018.9 hPa | - | - | - | - |
| 1778238508 | 9.44° C | 90% | 1018.9 hPa | - | - | - | - |
| 1778237908 | 9.44° C | 90% | 1019 hPa | - | - | - | - |
| 1778237308 | 10° C | 91% | 1018.9 hPa | - | - | - | - |
| 1778236703 | 9.44° C | 92% | 1018.9 hPa | - | - | - | - |
| 1778236103 | 9.44° C | 91% | 1019 hPa | - | - | - | - |
| 1778235503 | 10° C | 92% | 1018.8 hPa | - | - | - | - |
| 1778234904 | 9.44° C | 93% | 1018.8 hPa | - | - | - | - |
| 1778234305 | 9.44° C | 94% | 1018.7 hPa | - | - | - | - |
| 1778233705 | 8.89° C | 96% | 1018.8 hPa | - | - | - | - |
| 1778233105 | 7.78° C | 96% | 1018.8 hPa | - | - | - | - |
| 1778232506 | 7.78° C | 97% | 1018.9 hPa | - | - | - | - |
| 1778231906 | 7.78° C | 96% | 1018.9 hPa | - | - | - | - |
| 1778231307 | 8.89° C | 96% | 1019 hPa | - | - | - | - |
| 1778230708 | 8.89° C | 98% | 1018.9 hPa | - | - | - | - |
| 1778230108 | 8.33° C | 99% | 1018.9 hPa | - | - | - | - |
| 1778229510 | 7.22° C | 99% | 1018.9 hPa | - | - | - | - |
| 1778228909 | 7.22° C | 100% | 1018.7 hPa | - | - | - | - |
| 1778228311 | 7.22° C | 100% | 1018.5 hPa | - | - | - | - |
| 1778227712 | 7.22° C | 100% | 1018.5 hPa | - | - | - | - |
| 1778227113 | 6.67° C | 100% | 1018.4 hPa | - | - | - | - |
* Rain since midnight (hover to see other rain measurements)
** Current wind speed in m/s (hover to see current wind gust speed)